Tropical Cyclones
[Index]
Main Index Home Page Stock Weather Photos Extreme Storms Discussion Storm News and Storm Chasing Reports Tropical Cyclones / Hurricanes / Typhoons Weather Data and Links Wild Fires / Bushfires Weather Observation Techniques Weather Picture Catalogue Tornado Pictures and Reports Stock Video Footage and DVDs for sale
Season 1996-1997 Tropical Cyclone MELANIE Track Map
Season 1996-1997 Summaries: [BoM-AU] [JTWC-AU] [JTWC-SIO] [JTWC-SPAC] [JTWC-SH]
<<- Previous TC | BoM 1996-1997 Season | Next TC ->>

click for intensity scale information  Lat/long Grid: Show Hide

 Date Labels: Show Hide

Bureau of Meteorology Tropical Cyclone Data

Name: MELANIE
Number: 793 / 199697_02

28 Oct 1996 10:00 UTC to 06 Nov 1996 16:00 UTC

    date/time    lat    long    hPa   cat  kts
1996-10-28 10    9.1    97.8   1002         23          
1996-10-28 22    9.3    97.1   1000         27          
1996-10-29 10    9.6    96.4   1000         27          
1996-10-29 22    9.9    96.0   1000         27          
1996-10-30 07   10.1    95.6   1000         27          
1996-10-30 10   10.1    95.4    998         29          
1996-10-30 22   10.0    95.3    998         29          
1996-10-31 01    9.9    95.2    998         29          
1996-10-31 10    9.3    94.4    998         29          
1996-10-31 16    9.0    93.6    995    1    35          
1996-10-31 22    8.7    92.6    990    1    41          
1996-11-01 01    8.6    92.2    990    1    41          
1996-11-01 04    8.6    91.8    990    1    41          
1996-11-01 10    8.6    91.0    990    1    41          
1996-11-01 16    8.6    90.2    990    1    41          
1996-11-01 22    8.6    89.4    985    2    47          
1996-11-02 01    8.6    89.0    985    2    47          
1996-11-02 04    8.6    88.7    985    2    47          
1996-11-02 10    8.7    88.2    980    2    54          
1996-11-02 22    9.4    87.2    965    3    70          
1996-11-03 04    9.4    86.8    960    3    76          
1996-11-03 07   10.0    86.7    955    4    80          
1996-11-03 10   10.1    86.6    950    4    84          
1996-11-03 16   10.2    86.0    940    4    93          
1996-11-03 22   10.3    85.6    925    5    105          
1996-11-04 04   10.4    85.4    920    5    107          
1996-11-04 10   10.4    85.2    920    5    107          
1996-11-05 01   10.6    84.7    945    4    89          
1996-11-05 04   10.6    84.5    950    4    84          
1996-11-05 07   10.7    84.2    955    4    80          
1996-11-05 10   10.9    83.9    950    4    84          
1996-11-05 22   11.3    82.5    945    4    89          
1996-11-06 07   11.5    81.3    935    4    97          
1996-11-06 10   11.6    80.9    930    4    101          
1996-11-06 16   11.7    80.2    935    4    97          
Winds are 10-min average.

Tropical cyclone tracks developed by Michael Bath using data from the Bureau of Meteorology and Google Maps.


[Australian Severe Weather index] [Copyright Notice] [Email Contacts] [Search This Site] [Privacy Policy]
Document: tropical_cyclone_melanie.htm Updated: 30 May 2013